Weather History for MMLO - April, 2013

Change the Weather History Date:

Friday, April 12, 2013

  Actual Average Record
Temperature  
Mean Temperature 68 °F -  
Max Temperature 87 °F 85 °F 93 °F (2001)
Min Temperature 50 °F 53 °F 46 °F (2004)
Cooling Degree Days 4    
Growing Degree Days 18 (Base 50)    
Moisture  
Dew Point 18 °F    
Average Humidity 17    
Maximum Humidity 28    
Minimum Humidity 5    
Precipitation  
Precipitation 0.00 in - - ()
Sea Level Pressure  
Sea Level Pressure 29.95 in    
Wind  
Wind Speed 4 mph ()    
Max Wind Speed 17 mph    
Max Gust Speed -    
Visibility 8.8 miles    
Events      
Averages and records for this station are not official NWS values.
T = Trace of Precipitation, MM = Missing Value Source: Averaged Metar Reports

Daily Weather History Graph

Daily Weather History Graph

Search for Another Location

Airport or City:

Trip Planner

Search our weather history database for the weather conditions in past years. The results will help you decide how hot, cold, wet, or windy it might be!

Date:

Astronomy

Apr. 12, 2013 Rise Set
Actual Time 7:29 AM CDT 8:04 PM CDT
Civil Twilight 7:06 AM CDT 8:26 PM CDT
Nautical Twilight 6:40 AM CDT 8:53 PM CDT
Astronomical Twilight 6:13 AM CDT 9:19 PM CDT
Moon 8:56 AM CDT (4/12) 10:17 PM CDT (4/12)
Length of Visible Light 13h 19m
Length of Day
12h 34m
Waxing Crescent, 5% of the Moon is Illuminated
Apr 12
Waxing Crescent
Apr 18
First Quarter
Apr 25
Full
May 2
Last Quarter
May 9
New

Hourly Weather History & Observations

Time (CDT) Temp. Dew Point Humidity Pressure Visibility Wind Dir Wind Speed Gust Speed Precip Events Conditions
12:46 AM 60.8 °F 14.0 °F 16% 29.70 in 8.0 mi NNE 6.9 mph - N/A   Mostly Cloudy
1:50 AM 59.0 °F 15.8 °F 19% 30.09 in 8.0 mi NE 9.2 mph - N/A   Scattered Clouds
2:47 AM 57.2 °F 12.2 °F 17% 30.09 in 8.0 mi NNE 6.9 mph - N/A   Scattered Clouds
3:50 AM 55.4 °F 19.4 °F 25% 29.65 in 8.0 mi NNE 6.9 mph - N/A   Scattered Clouds
4:45 AM 55.4 °F 15.8 °F 21% 30.05 in 8.0 mi Calm Calm - N/A   Scattered Clouds
5:45 AM 51.8 °F 17.6 °F 26% 30.03 in 8.0 mi Calm Calm - N/A   Scattered Clouds
6:48 AM 50.0 °F 17.6 °F 28% 29.69 in 8.0 mi Calm Calm - N/A   Scattered Clouds
7:41 AM 51.8 °F 19.4 °F 28% 30.06 in 9.0 mi Calm Calm - N/A   Mostly Cloudy
8:43 AM 55.4 °F 21.2 °F 26% 30.09 in 9.0 mi Calm Calm - N/A   Mostly Cloudy
9:42 AM 60.8 °F 23.0 °F 23% 29.78 in 9.0 mi East 3.5 mph - N/A   Mostly Cloudy
10:44 AM 71.6 °F 28.4 °F 20% 30.12 in 9.0 mi Calm Calm - N/A   Mostly Cloudy
11:46 AM 78.8 °F 30.2 °F 17% 30.09 in 10.0 mi Calm Calm - N/A   Mostly Cloudy
12:46 PM 80.6 °F 26.6 °F 14% 29.71 in 10.0 mi Calm Calm - N/A   Mostly Cloudy
1:46 PM 84.2 °F 26.6 °F 12% 30.06 in 10.0 mi North 4.6 mph - N/A   Mostly Cloudy
2:42 PM 86.0 °F 24.8 °F 11% 30.03 in 10.0 mi SSW 5.8 mph - N/A   Mostly Cloudy
4:43 PM 87.8 °F 8.6 °F 5% 29.97 in 10.0 mi SW 10.4 mph - N/A   Scattered Clouds
5:49 PM 87.8 °F 12.2 °F 6% 29.97 in 10.0 mi SW 17.3 mph - N/A   Clear
7:49 PM 78.8 °F 14.0 °F 9% 29.97 in 10.0 mi West 17.3 mph - N/A   Clear
8:42 PM 71.6 °F 10.4 °F 9% 30.00 in 8.0 mi WSW 9.2 mph - N/A   Clear
9:43 PM 66.2 °F 10.4 °F 11% 29.71 in 8.0 mi SW 6.9 mph - N/A   Clear
10:51 PM 64.4 °F 14.0 °F 14% 30.06 in 8.0 mi NNW 4.6 mph - N/A   Clear
11:43 PM 62.6 °F 17.6 °F 18% 30.09 in 8.0 mi Calm Calm - N/A   Clear